{"data":{"norad_id":64543,"intl_designator":"2025-135R","name":"W-SERIES 4","alt_names":[],"object_type":"PAYLOAD","status":"ACTIVE","operator":null,"country":"US","launch_date":"2025-06-23","launch_site_code":"AFWTR","launch_vehicle":null,"mission":null,"orbit_class":"UNKNOWN","rcs_meters":null,"size_class":null,"mass_kg":null,"dimensions":null,"purposes":[],"wikipedia_slug":null,"has_3d_model":false,"image_url":null,"decayed_at":null,"tle_current":{"epoch":"2026-06-02T20:07:51.036096Z","epoch_age_seconds":9656535,"freshness":"OLD","line1":"1 64543U 25135R   26153.83878514  .05859477  21023-5  31298-3 0  9993","line2":"2 64543  97.4117 265.8534 0132474 127.6014 233.7388 16.17542295 52427","mean_motion":16.17542295,"eccentricity":0.0132474,"inclination_deg":97.4117,"raan_deg":265.8534,"arg_perigee_deg":127.6014,"mean_anomaly_deg":233.7388,"bstar":0.00031298,"rev_number":5242,"period_min":89.023947284173,"perigee_km":138.74249629543,"apogee_km":313.72396467813,"semimajor_km":6604.3702304868,"source":"CELESTRAK","updated_at":"2026-06-03T09:00:40.242441Z"}}}